Location: Goettingen
(51.5300°N, 9.9433°E)
Time: 05:53:53
(UTC+02:00)

ISS - Pass Details

Date: 02 April 2020
Orbit: 417 x 423 km, 51.6° (Epoch: 29 March)

Event Time Altitude Azimuth Distance (km) Brightness Sun altitude
Rises 21:46:36 0° 281° (W) 2,362 1.4 -16.8°
Reaches altitude 10° 21:49:10 10° 261° (W) 1,495 -0.3 -17.1°
Maximum altitude 21:51:28 17° 218° (SW) 1,123 -1.6 -17.4°
Enters shadow 21:52:21 16° 198° (SSW) 1,184 -1.6 -17.5°
